Wind_Speed
28 26 27 37 46 50 55 56 52 50 49 46 42 41 41 41 38 35 35 35 35 38 40 39 38 37 37 37 36 34 32 30 29 29 30 29 26 24 23 22 22 21
32 29 24 25 29 36 46 51 50 51 51 48 45 45 45 44 40 34 31 31 32 34 37 38 38 38 38 38 38 36 32 31 30 30 31 30 28 25 24 23 23 22
26 28 28 27 26 29 38 46 49 48 47 48 48 48 47 44 38 33 30 28 29 30 33 36 37 37 38 39 39 36 32 31 31 31 32 31 29 27 25 24 24 23
26 28 30 30 29 32 38 46 50 45 43 48 50 49 47 44 39 36 34 31 29 29 30 31 34 35 35 37 38 36 33 32 31 32 32 32 31 28 26 26 25 23
31 29 30 31 32 36 43 49 51 47 42 45 49 48 45 43 40 39 36 31 29 28 27 28 31 32 34 35 36 35 34 32 32 32 33 33 32 30 28 27 26 24
34 32 31 33 36 41 46 50 50 46 42 42 46 48 45 41 38 38 36 31 29 28 25 26 29 29 31 32 33 33 33 33 32 32 33 33 32 31 29 28 27 25
34 35 34 35 38 41 44 46 45 41 41 44 45 47 46 40 36 36 35 32 32 31 28 29 26 25 28 30 31 33 33 32 33 33 33 33 32 31 31 30 28 26
31 35 37 38 39 40 42 45 45 40 42 45 42 44 44 39 35 35 35 33 34 33 31 30 26 25 28 30 31 32 33 33 34 34 35 34 33 33 32 30 29 27
32 32 37 42 44 42 42 46 48 47 48 46 42 43 43 38 36 36 35 35 37 36 34 31 27 26 27 29 31 32 34 35 35 35 36 35 34 34 33 31 30 28
36 33 35 43 48 46 42 45 51 53 51 48 46 45 43 40 38 37 35 37 41 42 37 32 29 28 26 28 33 34 35 36 35 35 35 35 35 34 34 32 30 29
38 36 34 39 45 46 43 43 49 53 51 49 49 47 45 44 40 38 36 37 42 47 41 34 33 32 28 27 31 35 36 35 35 35 35 35 35 34 34 33 31 29
38 38 36 36 40 44 44 44 47 51 53 52 51 49 49 47 42 39 35 34 39 49 46 38 35 36 32 28 30 34 37 35 34 35 36 35 34 34 34 34 33 31
38 39 38 37 37 40 43 45 46 50 56 58 56 52 52 49 44 40 37 34 37 45 48 42 38 38 36 31 29 32 34 33 32 34 36 36 34 34 33 34 34 33
37 38 38 37 38 39 40 43 45 49 55 62 63 59 56 52 46 43 42 39 37 41 47 47 42 42 42 35 30 32 33 31 31 33 36 36 34 34 34 33 33 33
36 37 37 37 38 39 39 39 40 45 51 58 64 66 61 52 48 47 46 43 39 39 45 49 45 45 47 43 34 32 33 32 30 31 35 37 36 35 34 33 32 33
35 37 37 37 38 39 39 37 36 38 42 47 54 62 60 52 49 49 48 46 42 41 45 52 51 48 51 51 41 33 33 31 28 28 32 35 36 36 35 33 32 32
32 35 37 38 38 39 39 38 36 35 36 39 44 50 52 51 51 52 51 47 45 43 46 51 53 49 49 52 46 39 37 31 27 28 30 32 35 36 37 36 34 33
29 32 36 38 39 40 39 38 37 35 35 36 39 41 44 46 49 51 51 47 43 43 46 48 48 45 44 45 44 41 40 35 30 29 28 29 33 36 38 39 37 35
27 28 33 37 39 40 40 39 38 37 36 36 36 37 38 41 44 46 47 46 44 42 44 45 43 40 39 40 42 43 43 40 37 34 30 29 31 33 37 40 40 38
29 27 29 34 39 40 41 40 38 38 38 37 37 37 37 38 40 41 43 45 45 43 41 41 40 37 37 39 42 44 45 44 43 39 35 32 32 33 35 38 40 40
31 28 28 32 38 40 41 41 40 39 38 38 38 38 38 38 39 39 40 43 44 42 41 41 40 38 35 37 41 43 45 46 46 43 39 36 34 34 35 36 39 41
31 29 29 33 38 39 40 40 40 39 39 39 39 39 39 39 40 40 41 43 45 44 42 42 42 41 39 39 40 41 43 47 48 46 43 40 37 36 35 35 37 40
30 30 30 34 40 41 41 41 39 38 39 39 39 40 41 40 41 42 42 44 46 46 45 44 45 46 45 44 43 43 45 47 48 48 47 44 40 37 37 37 38 38
30 31 31 33 40 44 43 42 42 39 38 38 38 40 43 43 43 44 44 45 47 47 46 45 46 47 47 44 42 44 47 47 48 48 49 47 43 39 39 40 41 40
30 32 30 31 39 45 44 42 43 42 41 42 42 43 44 45 44 45 46 46 46 46 44 44 44 43 42 40 39 41 44 44 45 46 46 48 48 44 41 42 44 44
29 28 26 27 34 42 44 42 43 43 42 42 43 45 48 48 47 48 48 46 45 43 42 40 39 38 37 36 36 38 39 39 40 41 40 42 46 47 46 45 45 46
Wind_Direction
233 237 231 219 218 222 223 224 228 230 232 232 228 226 227 232 242 244 237 235 236 236 235 234 234 232 229 228 228 228 225 225 226 225 225 226 227 228 227 227 228 231
242 249 250 237 225 223 222 222 226 229 231 229 225 225 225 230 237 235 227 228 230 232 234 234 235 234 231 230 230 228 225 224 225 224 224 225 226 227 226 226 227 229
236 238 238 239 236 233 226 222 223 224 226 224 220 220 223 227 228 223 219 220 220 222 226 229 232 232 231 231 231 228 225 225 226 225 224 224 225 226 225 225 227 228
221 222 224 228 234 236 229 221 219 219 222 220 213 214 219 220 221 222 219 216 216 218 222 225 227 227 227 228 228 228 226 225 225 226 224 223 225 226 225 225 226 227
217 218 224 226 230 233 227 219 217 216 218 217 211 210 213 216 227 236 233 227 227 225 222 229 233 229 226 224 224 225 227 226 225 225 224 222 223 224 225 225 225 226
222 219 224 228 229 231 226 220 221 220 215 212 210 209 213 222 235 245 245 244 245 239 237 248 248 236 229 228 224 223 226 227 225 225 225 223 223 223 224 224 224 225
229 223 224 229 231 232 230 228 232 228 214 212 211 209 216 230 240 246 247 247 249 250 259 270 264 244 238 237 230 224 225 226 224 224 225 224 223 224 224 224 223 223
234 228 226 232 235 235 234 231 231 228 220 218 214 210 218 234 244 249 252 249 244 246 260 273 268 253 248 247 237 226 223 224 222 223 224 222 222 223 223 224 223 223
233 231 229 232 236 235 233 231 226 224 225 223 216 213 221 235 246 250 253 252 244 242 255 266 261 252 251 251 244 229 221 223 221 220 223 222 222 223 223 224 223 223
234 233 230 233 237 234 232 232 226 221 222 219 214 216 225 236 243 245 249 253 247 243 253 261 253 248 250 249 244 232 224 224 221 219 222 223 224 224 223 223 224 223
238 236 232 234 240 238 234 235 229 221 219 216 213 219 231 237 238 239 246 255 249 242 247 255 250 248 249 247 244 238 232 226 220 218 221 223 226 226 224 224 224 223
242 240 234 233 240 242 239 238 232 222 218 217 217 221 231 237 237 240 249 260 254 244 243 251 252 250 249 245 242 241 237 230 221 217 219 222 225 227 226 225 224 223
242 241 238 233 236 241 241 240 237 227 218 218 220 224 230 236 239 243 251 263 262 249 242 246 252 251 249 246 242 243 241 234 224 218 218 220 223 226 227 226 225 224
244 242 240 235 235 239 239 238 239 235 228 222 221 224 230 235 241 247 253 261 265 255 245 244 249 249 246 244 247 248 244 236 228 222 220 221 224 227 229 227 225 225
245 244 241 237 235 237 239 238 237 238 239 233 224 223 228 235 242 248 254 258 259 258 252 247 249 249 243 240 246 252 246 236 229 226 223 223 226 229 232 231 227 226
244 244 241 238 237 236 237 240 238 237 241 239 230 227 230 236 242 248 253 255 254 258 258 251 251 252 244 237 242 253 252 241 234 234 232 229 230 232 235 236 233 231
241 242 241 237 236 236 235 238 239 238 238 237 234 232 233 238 243 246 251 252 251 256 260 255 252 250 243 237 238 249 257 250 239 238 237 236 236 235 236 238 237 236
242 242 241 237 234 235 235 235 237 237 236 236 236 234 233 236 240 242 245 247 246 250 258 258 251 244 241 238 234 242 257 261 253 246 243 241 241 238 238 239 239 237
247 245 242 237 233 233 233 234 234 235 236 238 239 238 236 235 236 237 240 241 239 243 252 254 246 239 241 242 237 239 251 260 261 259 256 251 246 242 240 240 240 239
249 249 244 236 232 231 231 232 234 235 237 238 239 241 240 237 236 236 236 235 235 239 244 244 239 236 239 242 240 241 246 253 258 259 257 256 253 249 247 243 241 241
243 246 244 235 230 230 229 230 232 235 237 237 238 239 239 237 235 235 235 233 233 236 239 239 236 233 236 240 241 242 246 250 255 256 256 257 256 253 253 249 245 243
239 242 243 233 227 228 230 230 230 231 234 235 236 236 236 235 233 233 233 232 231 232 235 238 236 234 237 242 242 243 245 248 251 253 253 256 256 254 253 253 250 246
245 248 248 237 226 222 222 223 224 228 232 234 233 233 232 231 230 230 231 230 228 228 231 235 237 239 244 246 243 241 242 245 248 250 250 252 254 254 252 252 252 249
247 251 254 245 233 225 220 217 216 218 224 229 230 230 229 228 228 229 229 228 227 227 228 231 235 239 243 244 242 240 240 241 245 248 248 249 250 251 251 252 252 251
247 251 254 248 237 231 228 226 221 218 219 221 225 227 226 225 226 228 228 226 225 225 225 227 231 234 237 239 239 238 238 239 242 245 247 247 246 247 250 252 252 251
246 251 254 251 240 232 231 233 234 234 231 224 221 224 224 221 221 224 226 225 224 223 223 224 226 228 230 232 234 235 236 237 239 241 243 244 244 246 248 250 252 252
Height
3102 3102 3104 3108 3112 3115 3119 3122 3126 3130 3132 3134 3137 3140 3143 3145 3146 3147 3147 3148 3149 3150 3152 3153 3155 3157 3159 3160 3161 3163 3164 3165 3167 3168 3170 3171 3172 3173 3173 3174 3175 3176
3098 3099 3102 3106 3109 3112 3116 3120 3123 3126 3128 3130 3133 3137 3140 3142 3143 3143 3143 3144 3145 3146 3148 3149 3151 3153 3155 3156 3158 3159 3160 3162 3163 3165 3166 3168 3169 3170 3171 3172 3172 3174
3095 3098 3100 3103 3106 3109 3112 3116 3119 3121 3124 3126 3129 3134 3137 3139 3140 3139 3139 3140 3141 3142 3143 3144 3146 3148 3150 3152 3154 3155 3157 3158 3160 3162 3163 3165 3166 3167 3168 3169 3170 3171
3093 3096 3098 3101 3103 3106 3108 3111 3113 3116 3118 3120 3124 3129 3133 3135 3134 3133 3132 3133 3135 3137 3138 3140 3140 3142 3145 3148 3150 3152 3154 3155 3157 3158 3160 3161 3163 3164 3165 3166 3167 3169
3092 3094 3097 3098 3100 3101 3103 3105 3107 3110 3113 3115 3120 3125 3129 3130 3129 3129 3129 3130 3131 3133 3134 3136 3136 3138 3141 3143 3145 3148 3150 3152 3154 3155 3156 3158 3159 3160 3162 3163 3164 3166
3090 3092 3094 3096 3097 3096 3096 3099 3103 3105 3108 3111 3115 3121 3124 3125 3126 3128 3130 3131 3132 3132 3132 3133 3134 3136 3140 3140 3140 3143 3145 3148 3151 3152 3153 3155 3156 3157 3159 3160 3161 3163
3087 3089 3091 3093 3094 3092 3091 3094 3098 3099 3103 3106 3110 3116 3120 3121 3122 3125 3127 3130 3131 3132 3133 3134 3134 3136 3138 3139 3138 3138 3141 3145 3147 3149 3150 3152 3153 3154 3155 3157 3158 3160
3084 3086 3088 3090 3091 3091 3090 3091 3092 3094 3098 3103 3107 3112 3114 3116 3119 3121 3123 3126 3128 3130 3132 3134 3134 3135 3136 3138 3137 3136 3138 3141 3143 3145 3147 3148 3149 3150 3152 3154 3155 3157
3080 3082 3085 3086 3087 3088 3089 3089 3090 3092 3096 3100 3104 3107 3109 3112 3115 3117 3120 3123 3124 3126 3128 3129 3130 3132 3134 3135 3135 3134 3134 3136 3139 3141 3143 3144 3145 3146 3148 3150 3152 3154
3076 3079 3081 3082 3082 3083 3085 3086 3087 3090 3093 3097 3100 3103 3105 3108 3111 3114 3117 3119 3120 3122 3124 3125 3126 3128 3130 3132 3132 3130 3130 3131 3134 3137 3139 3140 3141 3142 3145 3147 3149 3151
3072 3074 3076 3078 3078 3079 3082 3082 3083 3086 3090 3093 3096 3099 3102 3104 3107 3110 3113 3115 3117 3119 3120 3122 3123 3124 3126 3127 3127 3128 3128 3129 3130 3132 3134 3136 3137 3139 3142 3144 3146 3148
3068 3070 3072 3075 3076 3076 3078 3079 3080 3084 3087 3089 3092 3095 3097 3099 3102 3106 3110 3112 3114 3116 3118 3119 3119 3120 3123 3123 3124 3126 3127 3126 3126 3127 3130 3132 3134 3136 3138 3140 3142 3144
3064 3066 3068 3071 3073 3074 3075 3077 3078 3081 3084 3085 3088 3091 3092 3094 3098 3102 3106 3109 3111 3112 3114 3116 3116 3117 3119 3120 3121 3123 3124 3124 3123 3124 3127 3129 3130 3132 3134 3137 3139 3141
3060 3062 3064 3067 3069 3070 3072 3074 3076 3078 3080 3082 3084 3086 3088 3091 3095 3098 3102 3104 3106 3107 3110 3112 3113 3114 3116 3118 3119 3120 3121 3122 3121 3121 3123 3125 3127 3129 3131 3133 3135 3137
3056 3058 3060 3062 3065 3066 3068 3070 3072 3074 3075 3077 3079 3082 3085 3088 3091 3094 3097 3100 3101 3102 3105 3107 3109 3110 3112 3114 3117 3118 3119 3120 3118 3117 3120 3122 3123 3126 3127 3129 3131 3133
3052 3053 3055 3057 3060 3062 3064 3066 3068 3069 3070 3071 3074 3078 3082 3085 3087 3089 3092 3095 3096 3098 3099 3101 3103 3106 3108 3111 3114 3116 3116 3116 3114 3113 3116 3118 3120 3122 3124 3126 3128 3130
3047 3049 3050 3052 3055 3058 3060 3062 3064 3065 3067 3068 3071 3074 3078 3081 3083 3084 3087 3090 3091 3092 3094 3095 3097 3100 3102 3106 3111 3113 3111 3110 3110 3109 3110 3114 3117 3118 3120 3122 3125 3127
3043 3045 3046 3048 3051 3053 3056 3058 3060 3061 3063 3065 3067 3069 3073 3076 3078 3080 3083 3084 3085 3087 3088 3089 3091 3094 3096 3100 3105 3107 3107 3107 3108 3108 3108 3110 3113 3115 3117 3118 3121 3123
3039 3040 3042 3044 3046 3049 3052 3054 3056 3057 3059 3061 3063 3065 3068 3070 3072 3075 3077 3078 3080 3082 3083 3084 3086 3089 3092 3095 3099 3101 3103 3105 3106 3106 3107 3108 3110 3112 3113 3115 3117 3119
3036 3037 3038 3040 3042 3044 3047 3050 3051 3053 3055 3057 3059 3061 3062 3064 3067 3069 3071 3072 3074 3076 3078 3079 3081 3085 3089 3091 3094 3096 3099 3101 3102 3103 3104 3105 3107 3109 3110 3111 3114 3116
3031 3032 3034 3035 3037 3039 3042 3045 3047 3049 3051 3053 3054 3056 3057 3059 3061 3064 3065 3067 3069 3071 3073 3075 3077 3080 3084 3087 3089 3092 3095 3097 3098 3099 3100 3102 3104 3105 3106 3108 3110 3112
3025 3027 3028 3030 3031 3033 3037 3040 3042 3044 3046 3048 3050 3051 3052 3054 3056 3058 3060 3061 3064 3066 3067 3070 3072 3076 3079 3082 3085 3088 3091 3092 3094 3095 3096 3098 3100 3101 3103 3104 3106 3108
3022 3023 3024 3025 3025 3026 3029 3033 3036 3039 3041 3042 3044 3045 3046 3048 3049 3052 3054 3056 3058 3060 3062 3064 3067 3070 3073 3077 3080 3083 3085 3087 3089 3091 3092 3094 3096 3097 3099 3100 3102 3104
3020 3021 3022 3023 3023 3023 3024 3024 3027 3031 3034 3037 3038 3039 3040 3042 3044 3046 3049 3050 3052 3054 3057 3059 3062 3065 3068 3071 3074 3077 3079 3081 3084 3086 3088 3090 3092 3093 3094 3096 3098 3101
3016 3018 3019 3019 3020 3022 3023 3023 3022 3023 3026 3028 3030 3032 3034 3037 3039 3041 3043 3045 3048 3050 3053 3055 3058 3061 3063 3066 3068 3071 3073 3076 3078 3080 3082 3085 3088 3089 3090 3091 3094 3097
3013 3015 3016 3016 3017 3019 3021 3022 3022 3021 3021 3021 3023 3025 3027 3028 3032 3035 3037 3040 3043 3045 3048 3051 3054 3057 3059 3061 3063 3066 3068 3071 3072 3074 3077 3080 3082 3085 3086 3087 3089 3092